Notices

What's New in latest Release from April 7th, 2021:

- Updated Glossary, including Speed of Maximum Gust, and Total Hourly Precipitation

- Updated national and regional climate services offices contacts and prices information

- Addition of station inventory lists for 1981-2010, 1971-2000, and 1961-1990 Normals.

If you haven't already, please take our survey and provide feedback about our website: https://eccc.sondage-survey.ca/f/LanguageSelection.aspx?s=442ca660-fcf1-47c0-95a9-59707d6fd709

Hourly Data Report for November 26, 2019

VICTORIA UNIVERSITY CS
BRITISH COLUMBIA
Current Station Operator: ECCC - MSC

48°27'25.200" N
123°18'16.600" W
60.10 m
1018598
71783
WYJ

Download Data

Hourly Data (November 2019)
Hourly Data Report for November 26, 2019
TIME
LST
Temp Definition
°C
Dew Point Definition
°C
Rel Hum Definition
%
Precip. Amount Definition
mm

Wind Dir Definition
10's deg

Wind Spd Definition
km/h
Visibility Definition
km
Stn Press Definition
kPa
Hmdx Definition


Wind Chill Definition


Weather Definition


00:00 3.3 2.6 95 0.0 2 4   100.97     LegendNANA
01:00 2.6 2.1 96 0.0 1 2   100.90     LegendNANA
02:00 3.0 2.6 97 0.0 34 4   100.87     LegendNANA
03:00 3.8 2.4 91 0.0 15 2   100.81     LegendNANA
04:00 3.3 2.1 92 0.0 9 3   100.70     LegendNANA
05:00 2.7 1.7 93 0.0 19 2   100.63     LegendNANA
06:00 2.2 1.7 96 2.5 6 2   100.56     LegendNANA
07:00 3.0 2.7 98 0.5 3 3   100.47     LegendNANA
08:00 3.7 3.2 97 0.3 7 5   100.41     LegendNANA
09:00 3.9 3.4 96 0.0 8 7   100.33     LegendNANA
10:00 4.6 3.4 91 0.0 7 5   100.27     LegendNANA
11:00 5.2 2.3 82 0.0 8 8   100.21     LegendNANA
12:00 5.8 1.6 74 0.0 7 7   100.11     LegendNANA
13:00 5.9 0.3 67 0.0 3 11   100.03     LegendNANA
14:00 5.3 0.2 70 0.0 3 10   99.94     LegendNANA
15:00 5.2 0.5 71 0.0 2 10   99.91     LegendNANA
16:00 5.0 1.5 78 0.0 2 15   99.85     LegendNANA
17:00 4.6 1.4 79 0.0 1 13   99.82     LegendNANA
18:00 4.6 2.0 83 0.0 36 13   99.79     LegendNANA
19:00 5.3 -3.8 52 0.0 3 14   99.75     LegendNANA
20:00 5.2 -4.9 48 0.0 3 10   99.71     LegendNANA
21:00 5.0 -5.3 47 0.0 4 10   99.69     LegendNANA
22:00 4.7 -5.5 47 0.0 4 10   99.67     LegendNANA
23:00 4.8 -5.3 48 0.0 3 11   99.67     LegendNANA

Notes on Data Quality.

Legend

  • E = Estimated
  • M = Missing
  • NA = Not Available*
  • [empty] = Indicates an unobserved value
Date modified: